Location: Cheyres
(46.8153°N, 6.7877°E)
Time: 03:54:16
(UTC+00:00)

CUBEBUG 2 - Visible Passes

Search period start: 28 June 2022 00:00
Search period end: 08 July 2022 00:00
Orbit: 582 x 695 km, 97.7° (Epoch: 27 June)

Date Brightness Start Highest point End Pass type
(mag) Time Alt. Az. Time Alt. Az. Time Alt. Az.
28 Jun ? 02:43:23 10° NNE 02:47:33 87° WNW 02:51:47 10° SSW visible
29 Jun ? 01:31:03 10° NE 01:33:44 17° E 01:36:28 10° SE visible
30 Jun ? 01:53:20 10° NE 01:56:57 28° E 02:00:36 10° SSE visible
01 Jul ? 02:16:01 10° NNE 02:20:04 48° E 02:24:12 10° S visible
02 Jul ? 02:38:56 10° NNE 02:43:08 85° ESE 02:47:25 10° SSW visible
03 Jul ? 01:26:45 10° NE 01:29:17 15° E 01:31:50 10° SE visible
03 Jul ? 03:02:01 10° N 03:06:07 55° WNW 03:10:18 10° SSW visible
04 Jul ? 01:48:56 10° NE 01:52:29 26° E 01:56:06 10° SSE visible
05 Jul ? 02:11:33 10° NNE 02:15:37 44° E 02:19:46 10° S visible
06 Jul ? 02:34:26 10° NNE 02:38:40 78° ESE 02:43:02 10° S visible
07 Jul ? 01:22:26 10° ENE 01:24:48 14° E 01:27:10 10° ESE visible
07 Jul ? 02:57:28 10° N 03:01:40 61° WNW 03:05:58 10° SSW visible
